Location: Eschertshofen
(49.3064°N, 11.5756°E)
Time: 01:04:39
(UTC+00:00)

YAOGAN 1 - Visible Passes

Search period start: 24 January 2021 00:00
Search period end: 03 February 2021 00:00
Orbit: 618 x 620 km, 97.9° (Epoch: 23 January)

Date Brightness Start Highest point End Pass type
(mag) Time Alt. Az. Time Alt. Az. Time Alt. Az.
24 Jan 6.0 05:31:17 10° ENE 05:32:45 11° E 05:34:11 10° ESE visible
24 Jan 4.0 16:29:19 10° E 16:32:07 17° ENE 16:34:55 10° NNE visible
24 Jan 2.9 18:03:27 10° S 18:07:44 66° WSW 18:12:04 10° NNW visible
25 Jan 5.6 05:47:13 10° NE 05:50:02 17° E 05:52:50 10° SE visible
25 Jan 3.7 16:45:36 10° ESE 16:49:01 23° ENE 16:52:27 10° N visible
25 Jan 3.7 18:20:45 10° S 18:24:53 44° W 18:29:03 10° NNW visible
26 Jan 5.3 06:03:45 10° NE 06:07:18 24° E 06:10:48 10° SSE visible
26 Jan 3.2 17:02:08 10° SE 17:05:58 32° ENE 17:09:50 10° N visible
26 Jan 4.4 18:38:14 10° SSW 18:42:04 30° W 18:45:55 10° NNW visible
27 Jan 2.8 17:18:50 10° SE 17:22:58 46° ENE 17:27:07 10° N visible
27 Jan 5.0 18:55:59 10° SW 18:59:17 21° W 19:02:38 10° NW visible
28 Jan 2.5 17:35:43 10° SSE 17:39:59 67° ENE 17:44:19 10° N visible
28 Jan 5.6 19:14:05 10° SW 19:16:34 15° W 19:19:02 10° NW visible
29 Jan 2.6 17:52:44 10° SSE 17:57:04 84° WSW 18:01:26 10° NNW visible
30 Jan 5.9 05:37:09 10° ENE 05:39:16 13° E 05:41:21 10° ESE visible
30 Jan 3.2 18:09:56 10° S 18:14:11 57° W 18:18:28 10° NNW visible
31 Jan 5.6 05:53:25 10° NE 05:56:32 19° E 05:59:38 10° SE visible
31 Jan 3.5 16:51:48 10° ESE 16:55:23 26° ENE 16:59:00 10° N visible
31 Jan 4.0 18:27:18 10° SSW 18:31:20 38° W 18:35:24 10° NNW visible
01 Feb 5.1 06:10:03 10° NE 06:13:46 27° E 06:17:28 10° SSE visible
01 Feb 3.1 17:08:23 10° SE 17:12:21 36° ENE 17:16:21 10° N visible
01 Feb 4.7 18:44:52 10° SSW 18:48:32 27° W 18:52:13 10° NW visible
02 Feb 2.7 17:25:10 10° SSE 17:29:21 53° ENE 17:33:35 10° N visible
02 Feb 5.3 19:02:43 10° SW 19:05:46 19° W 19:08:51 10° NW visible
